This is the latest recevied weather packets stored in our database for station/object KD7KCN-5. If no packets are shown the sender has not sent any weather packets the latest 10 day(s).
| Time | Temp. | Humidity | Pressure | Rain* | Wind** | Luminosity | Snow |
|---|---|---|---|---|---|---|---|
| 1777786916 | 17.22° C | 13% | 1015.3 hPa | 0 mm | - | 0 W/m² | - |
| 1777786316 | 17.22° C | 13% | 1015.3 hPa | 0 mm | - | 0 W/m² | - |
| 1777785716 | 17.22° C | 13% | 1015.3 hPa | 0 mm | - | 0 W/m² | - |
| 1777785116 | 17.22° C | 13% | 1015.3 hPa | 0 mm | - | 0 W/m² | - |
| 1777784516 | 17.22° C | 13% | 1015.3 hPa | 0 mm | - | 0 W/m² | - |
| 1777783916 | 17.22° C | 13% | 1015.3 hPa | 0 mm | - | 0 W/m² | - |
| 1777783316 | 17.22° C | 13% | 1015.2 hPa | 0 mm | - | 0 W/m² | - |
| 1777782716 | 17.22° C | 12% | 1015.1 hPa | 0 mm | - | 0 W/m² | - |
| 1777782116 | 17.22° C | 12% | 1015.1 hPa | 0 mm | - | 0 W/m² | - |
| 1777781516 | 17.22° C | 12% | 1015 hPa | 0 mm | - | 0 W/m² | - |
| 1777780916 | 17.22° C | 12% | 1014.9 hPa | 0 mm | - | 0 W/m² | - |
| 1777780317 | 17.22° C | 12% | 1014.8 hPa | 0 mm | - | 0 W/m² | - |
| 1777779716 | 17.22° C | 12% | 1014.6 hPa | 0 mm | - | 0 W/m² | - |
| 1777779116 | 17.22° C | 12% | 1014.5 hPa | 0 mm | - | 0 W/m² | - |
| 1777778516 | 17.22° C | 13% | 1014.5 hPa | 0 mm | - | 0 W/m² | - |
| 1777777916 | 17.22° C | 12% | 1014.4 hPa | 0 mm | - | 0 W/m² | - |
| 1777777317 | 17.78° C | 12% | 1014.4 hPa | 0 mm | - | 0 W/m² | - |
| 1777776716 | 17.78° C | 12% | 1014.3 hPa | 0 mm | - | 0 W/m² | - |
| 1777776116 | 17.78° C | 12% | 1014.2 hPa | 0 mm | - | 0 W/m² | - |
| 1777775516 | 17.78° C | 13% | 1014.2 hPa | 0 mm | - | 0 W/m² | - |
| 1777774916 | 17.78° C | 13% | 1014.3 hPa | 0 mm | - | 9 W/m² | - |
| 1777774316 | 18.33° C | 13% | 1014.3 hPa | 0 mm | - | 21 W/m² | - |
| 1777773716 | 18.33° C | 14% | 1014.4 hPa | 0 mm | - | 26 W/m² | - |
| 1777773116 | 18.33° C | 14% | 1014.4 hPa | 0 mm | - | 37 W/m² | - |
| 1777772519 | 18.89° C | 15% | 1014.4 hPa | 0 mm | - | 44 W/m² | - |
* Rain latest hour (hover to see other rain measurements)
** Current wind speed in m/s (hover to see current wind gust speed)